Tracking 29892 objects as of 21-Nov-2024
HD Live streaming from Space Station
objects crossing your sky now

FENGYUN 1C DEB

Track FENGYUN 1C DEB now!
10-day predictions


NORAD ID: 30420
Int'l Code: 1999-025AEK
Perigee: 470.3 km
Apogee: 583.1 km
Inclination: 99.0 °
Period: 95.0 minutes
Semi major axis: 6897 km
RCS: 0.046 m2 (small)
Launch date: May 10, 1999
Source: People's Republic of China (PRC)
Launch site: Taiyaun Space Center, China (TSC)

Note: This is SATELLITE DEBRIS
Your satellite tracking list
Your tracking list is empty




NASA's NSSDC Master Catalog

Two Line Element Set (TLE):
1 30420U 99025AEK 24325.95006069  .00041777  00000-0  20233-2 0  9993
2 30420  98.9520 323.9601 0081766 233.5539 125.8132 15.15469401956712
Source of the keplerian elements: AFSPC